Year,Month,Day,Hour,Minute,Value (Times are PST for temperature in C)
2017,09,02,00,00,16.50
2017,09,02,00,01,16.50
2017,09,02,00,02,16.50
2017,09,02,00,03,16.50
2017,09,02,00,04,16.50
2017,09,02,00,05,16.40
2017,09,02,00,06,16.40
2017,09,02,00,07,16.40
2017,09,02,00,08,16.40
2017,09,02,00,09,16.40
2017,09,02,00,10,16.40
2017,09,02,00,11,16.40
2017,09,02,00,12,16.40
2017,09,02,00,13,16.40
2017,09,02,00,14,16.40
2017,09,02,00,15,16.40
2017,09,02,00,16,16.40
2017,09,02,00,17,16.40
2017,09,02,00,18,16.40
2017,09,02,00,19,16.40
2017,09,02,00,20,16.30
2017,09,02,00,21,16.30
2017,09,02,00,22,16.30
2017,09,02,00,23,16.30
2017,09,02,00,24,16.30
2017,09,02,00,25,16.30
2017,09,02,00,26,16.30
2017,09,02,00,27,16.30
2017,09,02,00,28,16.30
2017,09,02,00,29,16.30
2017,09,02,00,30,16.30
2017,09,02,00,31,16.30
2017,09,02,00,32,16.30
2017,09,02,00,33,16.30
2017,09,02,00,34,16.30
2017,09,02,00,35,16.30
2017,09,02,00,36,16.20
2017,09,02,00,37,16.20
2017,09,02,00,38,16.20
2017,09,02,00,39,16.20
2017,09,02,00,40,16.20
2017,09,02,00,41,16.20
2017,09,02,00,42,16.20
2017,09,02,00,43,16.20
2017,09,02,00,44,16.20
2017,09,02,00,45,16.20
2017,09,02,00,46,16.20
2017,09,02,00,47,16.20
2017,09,02,00,48,16.20
2017,09,02,00,49,16.20
2017,09,02,00,50,16.20
2017,09,02,00,51,16.20
2017,09,02,00,52,16.20
2017,09,02,00,53,16.20
2017,09,02,00,54,16.20
2017,09,02,00,55,16.20
2017,09,02,00,56,16.20
2017,09,02,00,57,16.20
2017,09,02,00,58,16.20
2017,09,02,00,59,16.20
2017,09,02,01,00,16.20
2017,09,02,01,01,16.20
2017,09,02,01,02,16.30
2017,09,02,01,03,16.30
2017,09,02,01,04,16.30
2017,09,02,01,05,16.30
2017,09,02,01,06,16.30
2017,09,02,01,07,16.30
2017,09,02,01,08,16.30
2017,09,02,01,09,16.30
2017,09,02,01,10,16.40
2017,09,02,01,11,16.40
2017,09,02,01,12,16.40
2017,09,02,01,13,16.40
2017,09,02,01,14,16.40
2017,09,02,01,15,16.40
2017,09,02,01,16,16.40
2017,09,02,01,17,16.40
2017,09,02,01,18,16.40
2017,09,02,01,19,16.40
2017,09,02,01,20,16.50
2017,09,02,01,21,16.50
2017,09,02,01,22,16.50
2017,09,02,01,23,16.50
2017,09,02,01,24,16.60
2017,09,02,01,25,16.50
2017,09,02,01,26,16.60
2017,09,02,01,27,16.60
2017,09,02,01,28,16.50
2017,09,02,01,29,16.50
2017,09,02,01,30,16.50
2017,09,02,01,31,16.50
2017,09,02,01,32,16.50
2017,09,02,01,33,16.50
2017,09,02,01,34,16.50
2017,09,02,01,35,16.50
2017,09,02,01,36,16.50
2017,09,02,01,37,16.50
2017,09,02,01,38,16.50
2017,09,02,01,39,16.50
2017,09,02,01,40,16.50
2017,09,02,01,41,16.50
2017,09,02,01,42,16.50
2017,09,02,01,43,16.50
2017,09,02,01,44,16.50
2017,09,02,01,45,16.50
2017,09,02,01,46,16.50
2017,09,02,01,47,16.50
2017,09,02,01,48,16.50
2017,09,02,01,49,16.50
2017,09,02,01,50,16.50
2017,09,02,01,51,16.40
2017,09,02,01,52,16.40
2017,09,02,01,53,16.40
2017,09,02,01,54,16.40
2017,09,02,01,55,16.40
2017,09,02,01,56,16.40
2017,09,02,01,57,16.50
2017,09,02,01,58,16.50
2017,09,02,01,59,16.50
2017,09,02,02,00,16.50
2017,09,02,02,01,16.50
2017,09,02,02,02,16.50
2017,09,02,02,03,16.60
2017,09,02,02,04,16.60
2017,09,02,02,05,16.60
2017,09,02,02,06,16.60
2017,09,02,02,07,16.60
2017,09,02,02,08,16.50
2017,09,02,02,09,16.50
2017,09,02,02,10,16.50
2017,09,02,02,11,16.50
2017,09,02,02,12,16.50
2017,09,02,02,13,16.50
2017,09,02,02,14,16.50
2017,09,02,02,15,16.50
2017,09,02,02,16,16.50
2017,09,02,02,17,16.50
2017,09,02,02,18,16.50
2017,09,02,02,19,16.50
2017,09,02,02,20,16.40
2017,09,02,02,21,16.40
2017,09,02,02,22,16.40
2017,09,02,02,23,16.40
2017,09,02,02,24,16.40
2017,09,02,02,25,16.40
2017,09,02,02,26,16.40
2017,09,02,02,27,16.40
2017,09,02,02,28,16.40
2017,09,02,02,29,16.30
2017,09,02,02,30,16.30
2017,09,02,02,31,16.30
2017,09,02,02,32,16.30
2017,09,02,02,33,16.30
2017,09,02,02,34,16.30
2017,09,02,02,35,16.20
2017,09,02,02,36,16.20
2017,09,02,02,37,16.20
2017,09,02,02,38,16.20
2017,09,02,02,39,16.20
2017,09,02,02,40,16.10
2017,09,02,02,41,16.10
2017,09,02,02,42,16.10
2017,09,02,02,43,16.10
2017,09,02,02,44,16.00
2017,09,02,02,45,16.00
2017,09,02,02,46,16.00
2017,09,02,02,47,16.00
2017,09,02,02,48,15.90
2017,09,02,02,49,15.90
2017,09,02,02,50,15.90
2017,09,02,02,51,15.90
2017,09,02,02,52,15.80
2017,09,02,02,53,15.80
2017,09,02,02,54,15.80
2017,09,02,02,55,15.80
2017,09,02,02,56,15.70
2017,09,02,02,57,15.70
2017,09,02,02,58,15.70
2017,09,02,02,59,15.70
2017,09,02,03,00,15.60
2017,09,02,03,01,15.60
2017,09,02,03,02,15.60
2017,09,02,03,03,15.60
2017,09,02,03,04,15.60
2017,09,02,03,05,15.50
2017,09,02,03,06,15.50
2017,09,02,03,07,15.50
2017,09,02,03,08,15.50
2017,09,02,03,09,15.40
2017,09,02,03,10,15.40
2017,09,02,03,11,15.40
2017,09,02,03,12,15.40
2017,09,02,03,13,15.40
2017,09,02,03,14,15.40
2017,09,02,03,15,15.30
2017,09,02,03,16,15.30
2017,09,02,03,17,15.30
2017,09,02,03,18,15.30
2017,09,02,03,19,15.30
2017,09,02,03,20,15.30
2017,09,02,03,21,15.30
2017,09,02,03,22,15.30
2017,09,02,03,23,15.30
2017,09,02,03,24,15.30
2017,09,02,03,25,15.30
2017,09,02,03,26,15.30
2017,09,02,03,27,15.30
2017,09,02,03,28,15.30
2017,09,02,03,29,15.30
2017,09,02,03,30,15.30
2017,09,02,03,31,15.20
2017,09,02,03,32,15.20
2017,09,02,03,33,15.20
2017,09,02,03,34,15.20
2017,09,02,03,35,15.20
2017,09,02,03,36,15.20
2017,09,02,03,37,15.20
2017,09,02,03,38,15.20
2017,09,02,03,39,15.20
2017,09,02,03,40,15.20
2017,09,02,03,41,15.10
2017,09,02,03,42,15.10
2017,09,02,03,43,15.10
2017,09,02,03,44,15.10
2017,09,02,03,45,15.10
2017,09,02,03,46,15.10
2017,09,02,03,47,15.10
2017,09,02,03,48,15.10
2017,09,02,03,49,15.00
2017,09,02,03,50,15.00
2017,09,02,03,51,15.00
2017,09,02,03,52,15.00
2017,09,02,03,53,14.90
2017,09,02,03,54,14.90
2017,09,02,03,55,14.90
2017,09,02,03,56,14.90
2017,09,02,03,57,14.90
2017,09,02,03,58,14.80
2017,09,02,03,59,14.80
2017,09,02,04,00,14.80
2017,09,02,04,01,14.80
2017,09,02,04,02,14.80
2017,09,02,04,03,14.70
2017,09,02,04,04,14.70
2017,09,02,04,05,14.70
2017,09,02,04,06,14.70
2017,09,02,04,07,14.70
2017,09,02,04,08,14.70
2017,09,02,04,09,14.60
2017,09,02,04,10,14.60
2017,09,02,04,11,14.60
2017,09,02,04,12,14.60
2017,09,02,04,13,14.50
2017,09,02,04,14,14.50
2017,09,02,04,15,14.50
2017,09,02,04,16,14.50
2017,09,02,04,17,14.40
2017,09,02,04,18,14.40
2017,09,02,04,19,14.40
2017,09,02,04,20,14.40
2017,09,02,04,21,14.40
2017,09,02,04,22,14.40
2017,09,02,04,23,14.30
2017,09,02,04,24,14.30
2017,09,02,04,25,14.30
2017,09,02,04,26,14.30
2017,09,02,04,27,14.30
2017,09,02,04,28,14.30
2017,09,02,04,29,14.30
2017,09,02,04,30,14.20
2017,09,02,04,31,14.20
2017,09,02,04,32,14.20
2017,09,02,04,33,14.20
2017,09,02,04,34,14.20
2017,09,02,04,35,14.20
2017,09,02,04,36,14.20
2017,09,02,04,37,14.10
2017,09,02,04,38,14.10
2017,09,02,04,39,14.10
2017,09,02,04,40,14.10
2017,09,02,04,41,14.10
2017,09,02,04,42,14.10
2017,09,02,04,43,14.10
2017,09,02,04,44,14.00
2017,09,02,04,45,14.00
2017,09,02,04,46,14.00
2017,09,02,04,47,14.00
2017,09,02,04,48,14.00
2017,09,02,04,49,13.90
2017,09,02,04,50,13.90
2017,09,02,04,51,13.90
2017,09,02,04,52,13.90
2017,09,02,04,53,13.90
2017,09,02,04,54,13.90
2017,09,02,04,55,13.90
2017,09,02,04,56,13.90
2017,09,02,04,57,13.90
2017,09,02,04,58,13.80
2017,09,02,04,59,13.80
2017,09,02,05,00,13.80
2017,09,02,05,01,13.80
2017,09,02,05,02,13.80
2017,09,02,05,03,13.80
2017,09,02,05,04,13.80
2017,09,02,05,05,13.80
2017,09,02,05,06,13.80
2017,09,02,05,07,13.80
2017,09,02,05,08,13.80
2017,09,02,05,09,13.80
2017,09,02,05,10,13.80
2017,09,02,05,11,13.80
2017,09,02,05,12,13.80
2017,09,02,05,13,13.80
2017,09,02,05,14,13.80
2017,09,02,05,15,13.80
2017,09,02,05,16,13.80
2017,09,02,05,17,13.80
2017,09,02,05,18,13.80
2017,09,02,05,19,13.80
2017,09,02,05,20,13.80
2017,09,02,05,21,13.80
2017,09,02,05,22,13.80
2017,09,02,05,23,13.80
2017,09,02,05,24,13.80
2017,09,02,05,25,13.80
2017,09,02,05,26,13.80
2017,09,02,05,27,13.80
2017,09,02,05,28,13.80
2017,09,02,05,29,13.80
2017,09,02,05,30,13.80
2017,09,02,05,31,13.80
2017,09,02,05,32,13.80
2017,09,02,05,33,13.80
2017,09,02,05,34,13.80
2017,09,02,05,35,13.80
2017,09,02,05,36,13.80
2017,09,02,05,37,13.80
2017,09,02,05,38,13.80
2017,09,02,05,39,13.80
2017,09,02,05,40,13.80
2017,09,02,05,41,13.80
2017,09,02,05,42,13.80
2017,09,02,05,43,13.80
2017,09,02,05,44,13.80
2017,09,02,05,45,13.80
2017,09,02,05,46,13.80
2017,09,02,05,47,13.80
2017,09,02,05,48,13.80
2017,09,02,05,49,13.80
2017,09,02,05,50,13.80
2017,09,02,05,51,13.80
2017,09,02,05,52,13.80
2017,09,02,05,53,13.80
2017,09,02,05,54,13.80
2017,09,02,05,55,13.70
2017,09,02,05,56,13.70
2017,09,02,05,57,13.70
2017,09,02,05,58,13.70
2017,09,02,05,59,13.70
2017,09,02,06,00,13.70
2017,09,02,06,01,13.70
2017,09,02,06,02,13.70
2017,09,02,06,03,13.70
2017,09,02,06,04,13.70
2017,09,02,06,05,13.70
2017,09,02,06,06,13.70
2017,09,02,06,07,13.60
2017,09,02,06,08,13.60
2017,09,02,06,09,13.60
2017,09,02,06,10,13.60
2017,09,02,06,11,13.60
2017,09,02,06,12,13.60
2017,09,02,06,13,13.60
2017,09,02,06,14,13.60
2017,09,02,06,15,13.60
2017,09,02,06,16,13.60
2017,09,02,06,17,13.60
2017,09,02,06,18,13.60
2017,09,02,06,19,13.60
2017,09,02,06,20,13.60
2017,09,02,06,21,13.50
2017,09,02,06,22,13.50
2017,09,02,06,23,13.50
2017,09,02,06,24,13.50
2017,09,02,06,25,13.50
2017,09,02,06,26,13.50
2017,09,02,06,27,13.50
2017,09,02,06,28,13.50
2017,09,02,06,29,13.50
2017,09,02,06,30,13.50
2017,09,02,06,31,13.60
2017,09,02,06,32,13.60
2017,09,02,06,33,13.60
2017,09,02,06,34,13.60
2017,09,02,06,35,13.60
2017,09,02,06,36,13.60
2017,09,02,06,37,13.60
2017,09,02,06,38,13.60
2017,09,02,06,39,13.60
2017,09,02,06,40,13.60
2017,09,02,06,41,13.60
2017,09,02,06,42,13.60
2017,09,02,06,43,13.60
2017,09,02,06,44,13.60
2017,09,02,06,45,13.60
2017,09,02,06,46,13.60
2017,09,02,06,47,13.60
2017,09,02,06,48,13.60
2017,09,02,06,49,13.60
2017,09,02,06,50,13.60
2017,09,02,06,51,13.60
2017,09,02,06,52,13.60
2017,09,02,06,53,13.60
2017,09,02,06,54,13.60
2017,09,02,06,55,13.60
2017,09,02,06,56,13.60
2017,09,02,06,57,13.60
2017,09,02,06,58,13.60
2017,09,02,06,59,13.60
2017,09,02,07,00,13.60
2017,09,02,07,01,13.60
2017,09,02,07,02,13.70
2017,09,02,07,03,13.70
2017,09,02,07,04,13.70
2017,09,02,07,05,13.70
2017,09,02,07,06,13.70
2017,09,02,07,07,13.70
2017,09,02,07,08,13.70
2017,09,02,07,09,13.70
2017,09,02,07,10,13.70
2017,09,02,07,11,13.70
2017,09,02,07,12,13.70
2017,09,02,07,13,13.70
2017,09,02,07,14,13.80
2017,09,02,07,15,13.80
2017,09,02,07,16,13.80
2017,09,02,07,17,13.80
2017,09,02,07,18,13.80
2017,09,02,07,19,13.80
2017,09,02,07,20,13.90
2017,09,02,07,21,13.90
2017,09,02,07,22,13.90
2017,09,02,07,23,13.90
2017,09,02,07,24,13.90
2017,09,02,07,25,14.00
2017,09,02,07,26,14.00
2017,09,02,07,27,14.10
2017,09,02,07,28,14.10
2017,09,02,07,29,14.10
2017,09,02,07,30,14.10
2017,09,02,07,31,14.20
2017,09,02,07,32,14.20
2017,09,02,07,33,14.20
2017,09,02,07,34,14.20
2017,09,02,07,35,14.30
2017,09,02,07,36,14.30
2017,09,02,07,37,14.30
2017,09,02,07,38,14.30
2017,09,02,07,39,14.30
2017,09,02,07,40,14.40
2017,09,02,07,41,14.40
2017,09,02,07,42,14.50
2017,09,02,07,43,14.50
2017,09,02,07,44,14.50
2017,09,02,07,45,14.60
2017,09,02,07,46,14.60
2017,09,02,07,47,14.60
2017,09,02,07,48,14.70
2017,09,02,07,49,14.70
2017,09,02,07,50,14.70
2017,09,02,07,51,14.80
2017,09,02,07,52,14.80
2017,09,02,07,53,14.90
2017,09,02,07,54,14.90
2017,09,02,07,55,15.00
2017,09,02,07,56,15.00
2017,09,02,07,57,15.10
2017,09,02,07,58,15.10
2017,09,02,07,59,15.10
2017,09,02,08,00,15.20
2017,09,02,08,01,15.20
2017,09,02,08,02,15.20
2017,09,02,08,03,15.30
2017,09,02,08,04,15.30
2017,09,02,08,05,15.30
2017,09,02,08,06,15.30
2017,09,02,08,07,15.40
2017,09,02,08,08,15.40
2017,09,02,08,09,15.40
2017,09,02,08,10,15.50
2017,09,02,08,11,15.50
2017,09,02,08,12,15.60
2017,09,02,08,13,15.60
2017,09,02,08,14,15.70
2017,09,02,08,15,15.80
2017,09,02,08,16,15.80
2017,09,02,08,17,15.90
2017,09,02,08,18,16.00
2017,09,02,08,19,16.10
2017,09,02,08,20,16.20
2017,09,02,08,21,16.30
2017,09,02,08,22,16.40
2017,09,02,08,23,16.50
2017,09,02,08,24,16.60
2017,09,02,08,25,16.70
2017,09,02,08,26,16.80
2017,09,02,08,27,17.00
2017,09,02,08,28,17.20
2017,09,02,08,29,17.40
2017,09,02,08,30,17.60
2017,09,02,08,31,17.80
2017,09,02,08,32,18.10
2017,09,02,08,33,18.30
2017,09,02,08,34,18.50
2017,09,02,08,35,18.70
2017,09,02,08,36,18.90
2017,09,02,08,37,19.00
2017,09,02,08,38,19.20
2017,09,02,08,39,19.30
2017,09,02,08,40,19.50
2017,09,02,08,41,19.70
2017,09,02,08,42,19.80
2017,09,02,08,43,19.90
2017,09,02,08,44,20.10
2017,09,02,08,45,20.20
2017,09,02,08,46,20.30
2017,09,02,08,47,20.50
2017,09,02,08,48,20.60
2017,09,02,08,49,20.70
2017,09,02,08,50,20.70
2017,09,02,08,51,20.70
2017,09,02,08,52,20.70
2017,09,02,08,53,20.70
2017,09,02,08,54,20.70
2017,09,02,08,55,20.80
2017,09,02,08,56,20.80
2017,09,02,08,57,20.90
2017,09,02,08,58,21.00
2017,09,02,08,59,21.10
2017,09,02,09,00,21.20
2017,09,02,09,01,21.30
2017,09,02,09,02,21.40
2017,09,02,09,03,21.60
2017,09,02,09,04,21.70
2017,09,02,09,05,21.80
2017,09,02,09,06,22.00
2017,09,02,09,07,22.10
2017,09,02,09,08,22.30
2017,09,02,09,09,22.40
2017,09,02,09,10,22.60
2017,09,02,09,11,22.70
2017,09,02,09,12,22.80
2017,09,02,09,13,22.80
2017,09,02,09,14,22.90
2017,09,02,09,15,22.90
2017,09,02,09,16,22.90
2017,09,02,09,17,22.90
2017,09,02,09,18,22.90
2017,09,02,09,19,22.90
2017,09,02,09,20,22.80
2017,09,02,09,21,22.70
2017,09,02,09,22,22.70
2017,09,02,09,23,22.60
2017,09,02,09,24,22.50
2017,09,02,09,25,22.40
2017,09,02,09,26,22.40
2017,09,02,09,27,22.30
2017,09,02,09,28,22.20
2017,09,02,09,29,22.10
2017,09,02,09,30,22.00
2017,09,02,09,31,21.90
2017,09,02,09,32,21.90
2017,09,02,09,33,21.80
2017,09,02,09,34,21.70
2017,09,02,09,35,21.70
2017,09,02,09,36,21.60
2017,09,02,09,37,21.60
2017,09,02,09,38,21.50
2017,09,02,09,39,21.50
2017,09,02,09,40,21.50
2017,09,02,09,41,21.50
2017,09,02,09,42,21.50
2017,09,02,09,43,21.60
2017,09,02,09,44,21.60
2017,09,02,09,45,21.70
2017,09,02,09,46,21.70
2017,09,02,09,47,21.80
2017,09,02,09,48,21.90
2017,09,02,09,49,22.00
2017,09,02,09,50,22.10
2017,09,02,09,51,22.20
2017,09,02,09,52,22.30
2017,09,02,09,53,22.40
2017,09,02,09,54,22.50
2017,09,02,09,55,22.50
2017,09,02,09,56,22.60
2017,09,02,09,57,22.70
2017,09,02,09,58,22.70
2017,09,02,09,59,22.80
2017,09,02,10,00,22.90
2017,09,02,10,01,22.90
2017,09,02,10,02,23.10
2017,09,02,10,03,23.10
2017,09,02,10,04,23.20
2017,09,02,10,05,23.30
2017,09,02,10,06,23.30
2017,09,02,10,07,23.40
2017,09,02,10,08,23.50
2017,09,02,10,09,23.50
2017,09,02,10,10,23.60
2017,09,02,10,11,23.60
2017,09,02,10,12,23.60
2017,09,02,10,13,23.70
2017,09,02,10,14,23.70
2017,09,02,10,15,23.70
2017,09,02,10,16,23.70
2017,09,02,10,17,23.80
2017,09,02,10,18,23.80
2017,09,02,10,19,23.80
2017,09,02,10,20,23.80
2017,09,02,10,21,23.80
2017,09,02,10,22,23.80
2017,09,02,10,23,23.80
2017,09,02,10,24,23.80
2017,09,02,10,25,23.80
2017,09,02,10,26,23.80
2017,09,02,10,27,23.80
2017,09,02,10,28,23.80
2017,09,02,10,29,23.80
2017,09,02,10,30,23.90
2017,09,02,10,31,23.90
2017,09,02,10,32,23.90
2017,09,02,10,33,24.00
2017,09,02,10,34,24.00
2017,09,02,10,35,24.10
2017,09,02,10,36,24.20
2017,09,02,10,37,24.20
2017,09,02,10,38,24.30
2017,09,02,10,39,24.40
2017,09,02,10,40,24.50
2017,09,02,10,41,24.50
2017,09,02,10,42,24.60
2017,09,02,10,43,24.70
2017,09,02,10,44,24.80
2017,09,02,10,45,24.80
2017,09,02,10,46,24.80
2017,09,02,10,47,24.90
2017,09,02,10,48,24.90
2017,09,02,10,49,24.90
2017,09,02,10,50,25.00
2017,09,02,10,51,25.00
2017,09,02,10,52,25.10
2017,09,02,10,53,25.10
2017,09,02,10,54,25.10
2017,09,02,10,55,25.00
2017,09,02,10,56,25.10
2017,09,02,10,57,25.10
2017,09,02,10,58,25.10
2017,09,02,10,59,25.10
2017,09,02,11,00,25.10
2017,09,02,11,01,25.10
2017,09,02,11,02,25.10
2017,09,02,11,03,25.20
2017,09,02,11,04,25.20
2017,09,02,11,05,25.30
2017,09,02,11,06,25.40
2017,09,02,11,07,25.40
2017,09,02,11,08,25.50
2017,09,02,11,09,25.60
2017,09,02,11,10,25.70
2017,09,02,11,11,25.70
2017,09,02,11,12,25.80
2017,09,02,11,13,25.90
2017,09,02,11,14,25.90
2017,09,02,11,15,26.00
2017,09,02,11,16,26.00
2017,09,02,11,17,26.00
2017,09,02,11,18,26.00
2017,09,02,11,19,26.10
2017,09,02,11,20,26.10
2017,09,02,11,21,26.20
2017,09,02,11,22,26.20
2017,09,02,11,23,26.20
2017,09,02,11,24,26.20
2017,09,02,11,25,26.20
2017,09,02,11,26,26.20
2017,09,02,11,27,26.20
2017,09,02,11,28,26.30
2017,09,02,11,29,26.30
2017,09,02,11,30,26.40
2017,09,02,11,31,26.30
2017,09,02,11,32,26.30
2017,09,02,11,33,26.30
2017,09,02,11,34,26.40
2017,09,02,11,35,26.40
2017,09,02,11,36,26.30
2017,09,02,11,37,26.20
2017,09,02,11,38,26.20
2017,09,02,11,39,26.20
2017,09,02,11,40,26.20
2017,09,02,11,41,26.20
2017,09,02,11,42,26.20
2017,09,02,11,43,26.20
2017,09,02,11,44,26.10
2017,09,02,11,45,26.10
2017,09,02,11,46,26.00
2017,09,02,11,47,25.90
2017,09,02,11,48,25.90
2017,09,02,11,49,25.90
2017,09,02,11,50,26.00
2017,09,02,11,51,25.90
2017,09,02,11,52,25.80
2017,09,02,11,53,25.70
2017,09,02,11,54,25.60
2017,09,02,11,55,25.50
2017,09,02,11,56,25.40
2017,09,02,11,57,25.50
2017,09,02,11,58,25.50
2017,09,02,11,59,25.60
2017,09,02,12,00,25.70
2017,09,02,12,01,25.80
2017,09,02,12,02,25.90
2017,09,02,12,03,25.90
2017,09,02,12,04,26.00
2017,09,02,12,05,26.10
2017,09,02,12,06,26.20
2017,09,02,12,07,26.30
2017,09,02,12,08,26.40
2017,09,02,12,09,26.50
2017,09,02,12,10,26.50
2017,09,02,12,11,26.50
2017,09,02,12,12,26.40
2017,09,02,12,13,26.40
2017,09,02,12,14,26.40
2017,09,02,12,15,26.40
2017,09,02,12,16,26.50
2017,09,02,12,17,26.50
2017,09,02,12,18,26.60
2017,09,02,12,19,26.70
2017,09,02,12,20,26.80
2017,09,02,12,21,26.90
2017,09,02,12,22,27.00
2017,09,02,12,23,27.10
2017,09,02,12,24,27.10
2017,09,02,12,25,27.20
2017,09,02,12,26,27.20
2017,09,02,12,27,27.10
2017,09,02,12,28,27.10
2017,09,02,12,29,27.00
2017,09,02,12,30,27.00
2017,09,02,12,31,27.00
2017,09,02,12,32,27.00
2017,09,02,12,33,26.90
2017,09,02,12,34,26.80
2017,09,02,12,35,26.80
2017,09,02,12,36,26.70
2017,09,02,12,37,26.60
2017,09,02,12,38,26.60
2017,09,02,12,39,26.60
2017,09,02,12,40,26.50
2017,09,02,12,41,26.50
2017,09,02,12,42,26.40
2017,09,02,12,43,26.40
2017,09,02,12,44,26.40
2017,09,02,12,45,26.30
2017,09,02,12,46,26.30
2017,09,02,12,47,26.30
2017,09,02,12,48,26.30
2017,09,02,12,49,26.40
2017,09,02,12,50,26.40
2017,09,02,12,51,26.40
2017,09,02,12,52,26.40
2017,09,02,12,53,26.50
2017,09,02,12,54,26.60
2017,09,02,12,55,26.70
2017,09,02,12,56,26.60
2017,09,02,12,57,26.60
2017,09,02,12,58,26.60
2017,09,02,12,59,26.60
2017,09,02,13,00,26.60
2017,09,02,13,01,26.50
2017,09,02,13,02,26.50
2017,09,02,13,03,26.40
2017,09,02,13,04,26.50
2017,09,02,13,05,26.60
2017,09,02,13,06,26.70
2017,09,02,13,07,26.80
2017,09,02,13,08,26.90
2017,09,02,13,09,27.00
2017,09,02,13,10,27.00
2017,09,02,13,11,27.10
2017,09,02,13,12,27.10
2017,09,02,13,13,27.10
2017,09,02,13,14,27.10
2017,09,02,13,15,27.10
2017,09,02,13,16,27.10
2017,09,02,13,17,27.20
2017,09,02,13,18,27.20
2017,09,02,13,19,27.10
2017,09,02,13,20,27.20
2017,09,02,13,21,27.20
2017,09,02,13,22,27.20
2017,09,02,13,23,27.20
2017,09,02,13,24,27.20
2017,09,02,13,25,27.30
2017,09,02,13,26,27.30
2017,09,02,13,27,27.30
2017,09,02,13,28,27.30
2017,09,02,13,29,27.30
2017,09,02,13,30,27.30
2017,09,02,13,31,27.30
2017,09,02,13,32,27.40
2017,09,02,13,33,27.40
2017,09,02,13,34,27.40
2017,09,02,13,35,27.40
2017,09,02,13,36,27.40
2017,09,02,13,37,27.40
2017,09,02,13,38,27.40
2017,09,02,13,39,27.40
2017,09,02,13,40,27.40
2017,09,02,13,41,27.40
2017,09,02,13,42,27.30
2017,09,02,13,43,27.30
2017,09,02,13,44,27.20
2017,09,02,13,45,27.20
2017,09,02,13,46,27.20
2017,09,02,13,47,27.10
2017,09,02,13,48,27.00
2017,09,02,13,49,27.00
2017,09,02,13,50,26.90
2017,09,02,13,51,26.90
2017,09,02,13,52,26.80
2017,09,02,13,53,26.80
2017,09,02,13,54,26.70
2017,09,02,13,55,26.70
2017,09,02,13,56,26.70
2017,09,02,13,57,26.70
2017,09,02,13,58,26.70
2017,09,02,13,59,26.80
2017,09,02,14,00,26.80
2017,09,02,14,01,26.80
2017,09,02,14,02,26.80
2017,09,02,14,03,26.80
2017,09,02,14,04,26.80
2017,09,02,14,05,26.80
2017,09,02,14,06,26.80
2017,09,02,14,07,26.80
2017,09,02,14,08,26.80
2017,09,02,14,09,26.80
2017,09,02,14,10,26.90
2017,09,02,14,11,27.00
2017,09,02,14,12,27.10
2017,09,02,14,13,27.20
2017,09,02,14,14,27.20
2017,09,02,14,15,27.30
2017,09,02,14,16,27.30
2017,09,02,14,17,27.30
2017,09,02,14,18,27.40
2017,09,02,14,19,27.40
2017,09,02,14,20,27.40
2017,09,02,14,21,27.40
2017,09,02,14,22,27.30
2017,09,02,14,23,27.20
2017,09,02,14,24,27.20
2017,09,02,14,25,27.10
2017,09,02,14,26,27.10
2017,09,02,14,27,27.10
2017,09,02,14,28,27.10
2017,09,02,14,29,27.10
2017,09,02,14,30,27.10
2017,09,02,14,31,27.10
2017,09,02,14,32,27.00
2017,09,02,14,33,27.00
2017,09,02,14,34,27.00
2017,09,02,14,35,27.00
2017,09,02,14,36,27.00
2017,09,02,14,37,27.10
2017,09,02,14,38,27.10
2017,09,02,14,39,27.10
2017,09,02,14,40,27.10
2017,09,02,14,41,27.10
2017,09,02,14,42,27.10
2017,09,02,14,43,27.10
2017,09,02,14,44,27.20
2017,09,02,14,45,27.20
2017,09,02,14,46,27.30
2017,09,02,14,47,27.30
2017,09,02,14,48,27.30
2017,09,02,14,49,27.20
2017,09,02,14,50,27.20
2017,09,02,14,51,27.20
2017,09,02,14,52,27.10
2017,09,02,14,53,27.10
2017,09,02,14,54,27.00
2017,09,02,14,55,27.00
2017,09,02,14,56,26.90
2017,09,02,14,57,26.90
2017,09,02,14,58,26.90
2017,09,02,14,59,26.90
2017,09,02,15,00,26.90
2017,09,02,15,01,26.90
2017,09,02,15,02,26.90
2017,09,02,15,03,26.90
2017,09,02,15,04,27.00
2017,09,02,15,05,27.00
2017,09,02,15,06,27.10
2017,09,02,15,07,27.00
2017,09,02,15,08,26.90
2017,09,02,15,09,26.80
2017,09,02,15,10,26.70
2017,09,02,15,11,26.60
2017,09,02,15,12,26.60
2017,09,02,15,13,26.60
2017,09,02,15,14,26.50
2017,09,02,15,15,26.50
2017,09,02,15,16,26.40
2017,09,02,15,17,26.40
2017,09,02,15,18,26.30
2017,09,02,15,19,26.30
2017,09,02,15,20,26.30
2017,09,02,15,21,26.20
2017,09,02,15,22,26.20
2017,09,02,15,23,26.20
2017,09,02,15,24,26.20
2017,09,02,15,25,26.20
2017,09,02,15,26,26.20
2017,09,02,15,27,26.20
2017,09,02,15,28,26.10
2017,09,02,15,29,26.10
2017,09,02,15,30,26.10
2017,09,02,15,31,26.10
2017,09,02,15,32,26.10
2017,09,02,15,33,26.10
2017,09,02,15,34,26.10
2017,09,02,15,35,26.10
2017,09,02,15,36,26.10
2017,09,02,15,37,25.90
2017,09,02,15,38,25.90
2017,09,02,15,39,25.80
2017,09,02,15,40,25.70
2017,09,02,15,41,25.70
2017,09,02,15,42,25.70
2017,09,02,15,43,25.70
2017,09,02,15,44,25.70
2017,09,02,15,45,25.70
2017,09,02,15,46,25.70
2017,09,02,15,47,25.70
2017,09,02,15,48,25.60
2017,09,02,15,49,25.40
2017,09,02,15,50,25.30
2017,09,02,15,51,25.10
2017,09,02,15,52,25.00
2017,09,02,15,53,24.80
2017,09,02,15,54,24.80
2017,09,02,15,55,24.80
2017,09,02,15,56,24.70
2017,09,02,15,57,24.70
2017,09,02,15,58,24.80
2017,09,02,15,59,24.80
2017,09,02,16,00,24.80
2017,09,02,16,01,24.90
2017,09,02,16,02,24.90
2017,09,02,16,03,24.90
2017,09,02,16,04,25.00
2017,09,02,16,05,25.00
2017,09,02,16,06,25.10
2017,09,02,16,07,25.20
2017,09,02,16,08,25.20
2017,09,02,16,09,25.30
2017,09,02,16,10,25.30
2017,09,02,16,11,25.40
2017,09,02,16,12,25.40
2017,09,02,16,13,25.50
2017,09,02,16,14,25.50
2017,09,02,16,15,25.60
2017,09,02,16,16,25.60
2017,09,02,16,17,25.50
2017,09,02,16,18,25.50
2017,09,02,16,19,25.40
2017,09,02,16,20,25.40
2017,09,02,16,21,25.40
2017,09,02,16,22,25.40
2017,09,02,16,23,25.40
2017,09,02,16,24,25.40
2017,09,02,16,25,25.40
2017,09,02,16,26,25.50
2017,09,02,16,27,25.50
2017,09,02,16,28,25.50
2017,09,02,16,29,25.50
2017,09,02,16,30,25.50
2017,09,02,16,31,25.50
2017,09,02,16,32,25.40
2017,09,02,16,33,25.30
2017,09,02,16,34,25.20
2017,09,02,16,35,25.10
2017,09,02,16,36,25.10
2017,09,02,16,37,25.00
2017,09,02,16,38,24.90
2017,09,02,16,39,24.90
2017,09,02,16,40,24.90
2017,09,02,16,41,24.90
2017,09,02,16,42,24.90
2017,09,02,16,43,24.90
2017,09,02,16,44,25.00
2017,09,02,16,45,25.10
2017,09,02,16,46,25.20
2017,09,02,16,47,25.30
2017,09,02,16,48,25.40
2017,09,02,16,49,25.40
2017,09,02,16,50,25.50
2017,09,02,16,51,25.60
2017,09,02,16,52,25.60
2017,09,02,16,53,25.60
2017,09,02,16,54,25.60
2017,09,02,16,55,25.60
2017,09,02,16,56,25.60
2017,09,02,16,57,25.60
2017,09,02,16,58,25.60
2017,09,02,16,59,25.60
2017,09,02,17,00,25.70
2017,09,02,17,01,25.70
2017,09,02,17,02,25.80
2017,09,02,17,03,25.80
2017,09,02,17,04,25.90
2017,09,02,17,05,26.00
2017,09,02,17,06,26.10
2017,09,02,17,07,26.20
2017,09,02,17,08,26.30
2017,09,02,17,09,26.50
2017,09,02,17,10,26.50
2017,09,02,17,11,26.60
2017,09,02,17,12,26.60
2017,09,02,17,13,26.60
2017,09,02,17,14,26.50
2017,09,02,17,15,26.50
2017,09,02,17,16,26.40
2017,09,02,17,17,26.20
2017,09,02,17,18,26.10
2017,09,02,17,19,26.00